Location: Grieser Field
(39.7333°N, 81.7975°W)
Time: 17:21:49
(UTC-04:00)

HST - Visible Passes

Search period start: 02 September 2014 00:00
Search period end: 12 September 2014 00:00
Orbit: 547 x 552 km, 28.5° (Epoch: 01 September)

Date Brightness Start Highest point End Pass type
(mag) Time Alt. Az. Time Alt. Az. Time Alt. Az.
06 Sep 3.0 21:20:24 10° SSW 21:21:42 13° S 21:21:42 13° S visible
07 Sep 2.8 21:12:57 10° SSW 21:15:16 15° S 21:15:16 15° S visible
08 Sep 2.6 21:05:39 10° SSW 21:08:15 16° S 21:08:46 16° SSE visible
09 Sep 2.6 20:58:26 10° SW 21:01:10 17° S 21:02:11 16° SSE visible
10 Sep 2.7 20:51:18 10° SW 20:54:05 17° S 20:55:35 15° SSE visible
11 Sep 2.7 20:44:14 10° SW 20:46:59 17° S 20:48:57 13° SSE visible
